Location: Mladá Boleslav
(50.4134°N, 14.9084°E)
Time: 00:43:28
(UTC+02:00)

FO-29 - Visible Passes

Search period start: 28 May 2024 00:00
Search period end: 07 June 2024 00:00
Orbit: 801 x 1320 km, 98.6° (Epoch: 27 May)

Date Brightness Start Highest point End Pass type
(mag) Time Alt. Az. Time Alt. Az. Time Alt. Az.
28 May 11.7 01:00:06 10° NE 01:04:36 17° E 01:08:49 10° ESE visible
28 May 9.9 02:43:34 10° NNE 02:51:02 78° ESE 02:56:29 16° S visible
29 May 10.9 01:48:51 10° NNE 01:55:28 36° E 02:00:36 14° SSE visible
29 May 10.2 03:33:40 10° N 03:40:51 56° WNW 03:47:05 11° SW visible
30 May 11.7 00:55:17 10° NE 00:59:19 16° E 01:03:07 10° ESE visible
30 May 9.9 02:38:31 10° NNE 02:45:51 73° ESE 02:51:11 16° S visible
31 May 10.9 01:43:50 10° NNE 01:50:14 33° E 01:55:18 13° SSE visible
31 May 10.1 03:28:35 10° N 03:35:42 58° WNW 03:41:46 11° SW visible
01 Jun 11.8 00:50:32 10° NE 00:54:01 14° ENE 00:57:19 10° ESE visible
01 Jun 9.9 02:33:27 10° NNE 02:40:38 69° ESE 02:45:52 16° S visible
02 Jun 11.0 01:38:51 10° NNE 01:44:59 31° E 01:49:58 12° SSE visible
02 Jun 10.0 03:23:30 10° N 03:30:33 61° WNW 03:36:26 12° SW visible
03 Jun 11.8 00:45:53 10° NE 00:48:42 13° ENE 00:51:25 10° ESE visible
03 Jun 10.0 02:28:23 10° NNE 02:35:26 64° E 02:40:32 16° S visible
04 Jun 11.1 01:33:51 10° NNE 01:39:42 28° E 01:44:37 11° SE visible
04 Jun 9.9 03:18:24 10° N 03:25:22 64° WNW 03:31:05 12° SSW visible
05 Jun 11.8 00:41:25 10° ENE 00:43:23 11° ENE 00:45:18 10° E visible
05 Jun 10.0 02:23:19 10° NNE 02:30:12 60° E 02:35:11 16° S visible
06 Jun 11.1 01:28:52 10° NNE 01:34:26 26° E 01:39:16 11° SE visible
06 Jun 9.8 03:13:18 10° N 03:20:11 68° WNW 03:25:44 13° SSW visible
